Regional Weather Roundup
Issued by NWS

Home | Current Version | Previous Version | Text Only | Print | Product List | Glossary Off
Versions: 1 2 3 4 5 6 7 8 9 10 11 12 13 14 15 16 17 18 19 20 21 22 23 24 25 26 27 28 29 30 31 32 33 34 35 36 37 38 39 40 41 42 43 44 45 46 47 48 49 50

000
ASUS43 KLSX 160559
RWRMO

WEATHER SUMMARY FOR MISSOURI
NATIONAL WEATHER SERVICE SPRINGFIELD MO
100 AM CDT TUE SEP 16 2014

NOTE: "FAIR" INDICATES FEW OR NO CLOUDS BELOW 12,000 FEET WITH NO
       SIGNIFICANT WEATHER AND/OR OBSTRUCTIONS TO VISIBILITY.
       CURRENT SKY AND/OR WEATHER CONDITIONS ARE NOT AVAILABLE FOR
       CHILLICOTHE AND FARMINGTON.

MOZ001>031-035>038-043-044-053-054-160700-
...NORTHERN AND WESTERN MISSOURI...

CITY           SKY/WX    TMP DP  RH WIND       PRES   REMARKS
KANSAS CTY INT CLEAR     50  49  96 N6        30.25S
6HR MIN TEMP:  50; 6HR MAX TEMP:  62;

KANSAS C DTWN  PTCLDY    53  49  86 NE3       30.24F
6HR MIN TEMP:  53; 6HR MAX TEMP:  64;

LEE`S SUMMIT   CLEAR     54  50  86 NE5       30.24F
6HR MIN TEMP:  54; 6HR MAX TEMP:  63;

ST JOSEPH      CLOUDY    50  48  93 N6        30.26S
6HR MIN TEMP:  50; 6HR MAX TEMP:  61;

KIRKSVILLE     PTCLDY    52  50  93 N3        30.24S
6HR MIN TEMP:  52; 6HR MAX TEMP:  59;


$$
MOZ066>068-077>081-088>096-101>105-160700-
...SOUTHWEST MISSOURI...

CITY           SKY/WX    TMP DP  RH WIND       PRES   REMARKS
SPRINGFIELD    CLOUDY    66  60  81 NE8       30.17F
6HR MIN TEMP:  66; 6HR MAX TEMP:  73;

JOPLIN         CLOUDY    65  62  90 NE7       30.18S
6HR MIN TEMP:  65; 6HR MAX TEMP:  72; 6HR PCP: TRACE;


$$
MOZ032>034-039>042-045>050-055>058-069>072-160700-
...CENTRAL MISSOURI...

CITY           SKY/WX    TMP DP  RH WIND       PRES   REMARKS
COLUMBIA       CLOUDY    59  56  89 N7        30.20F
6HR MIN TEMP:  59; 6HR MAX TEMP:  65;

JEFFERSON CITY CLOUDY    61  58  90 CALM      30.20S
6HR MIN TEMP:  60; 6HR MAX TEMP:  68;

ROLLA          CLOUDY    61  57  87 NE7       30.17S
6HR MIN TEMP:  61; 6HR MAX TEMP:  68;

SEDALIA        CLOUDY    58  53  84 N7        30.22S
6HR MIN TEMP:  58; 6HR MAX TEMP:  66;

OSAGE BEACH    CLOUDY    63  57  82 N3        30.19S

$$
MOZ051-052-059>065-160700-
...EAST CENTRAL MISSOURI...

CITY           SKY/WX    TMP DP  RH WIND       PRES   REMARKS
ST LOUIS INTL  CLOUDY    61  56  83 N8        30.18S
6HR MIN TEMP:  60; 6HR MAX TEMP:  66; 6HR PCP: TRACE;

SPIRIT OF STL  CLOUDY    61  57  87 N6        30.17S
6HR MIN TEMP:  61; 6HR MAX TEMP:  66; 6HR PCP:  0.01;

ST CHARLES     CLOUDY    59  56  89 NE10      30.18R
6HR MIN TEMP:  59; 6HR MAX TEMP:  63;


$$
MOZ072>076-082>087-097>100-106>115-160700-
...SOUTH CENTRAL AND SOUTHEAST MISSOURI...

CITY           SKY/WX    TMP DP  RH WIND       PRES   REMARKS
CAPE GIRARDEAU CLOUDY    66  63  90 N12       30.13R
6HR MIN TEMP:  66; 6HR MAX TEMP:  72;

FARMINGTON     CLOUDY    63  59  88 N5        30.18S
6HR MIN TEMP:  63; 6HR MAX TEMP:  73;

POPLAR BLUFF   CLOUDY    67  63  87 CALM      30.10S
6HR MIN TEMP:  65; 6HR MAX TEMP:  71;

WEST PLAINS    CLOUDY    69  65  86 N8        30.16S
6HR MIN TEMP:  69; 6HR MAX TEMP:  76;


$$



USA.gov is the U.S. government's official web portal to all federal, state and local government web resources and services.